Starlink 36599

operational
NORAD ID: 67638 Int'l Des: 2026-020 Owner: SPXS Country: US Constellation: starlink
NOTLE

About Starlink 36599

Description loading...

Live Position

Loading 3D Globe...

Upcoming Passes

Altitude History

Altitude vs Time

uPlot chart will show altitude changes over time

Two-Line Element Set

1 67638U 26020X 26047.10247798 .00241826 00000-0 11207-2 0 9993
2 67638 42.9967 272.9569 0001697 264.0547 96.0131 15.81987698 2688
Epoch: Feb 16, 2026 • Age: 22 hours

Current Status

Altitude 325.3 km
Velocity 7.72 km/s
Sub-Earth Point 31.96°N, 104.51°W
Launch Date Jan 30, 2026
Age 17 days
Type internet

Technical Details

Classification Payload
Mass 575.00 kg
Dry Mass 530.00 kg
Total Mass 575.00 kg
Length 0.30 m
Diameter 4.10 m
Span 29.00 m
Shape Box + pan
Manufacturer SPXS
Bus Type Starlink V2MO
Phase Status In Orbit
Owner/State SPXS/US

Large Constellations

Loading constellations...